Wetbulb
63.11 63.70 63.58 60.55 53.01 52.70 51.53 53.09 55.15 55.55 56.69 61.17 62.60 61.84 60.54 62.02 59.31 57.50 71.00 72.47 73.06 73.91 73.68 73.00 72.34 72.77 72.93 72.86 72.99 73.04 73.24 73.54 73.24 73.05 72.93 72.80 72.51 72.28 71.99 71.90 71.59 71.06 70.68 70.45 70.35 70.30 70.61 71.18 71.69
61.75 60.68 61.00 58.14 51.17 49.97 50.97 53.85 53.68 56.12 61.85 64.02 62.75 61.45 58.74 58.07 64.57 68.14 69.79 72.38 73.33 74.03 73.57 72.98 71.89 72.26 72.65 72.80 72.74 72.76 73.13 72.99 72.81 72.73 72.61 72.34 72.06 71.92 71.49 71.07 71.43 70.81 70.39 69.98 69.71 69.66 69.58 69.80 70.64
60.75 60.15 56.98 54.43 52.81 50.12 50.27 53.13 55.84 61.64 63.42 63.19 61.17 64.72 61.51 59.97 66.46 69.29 72.64 72.83 73.64 73.78 73.90 73.27 71.49 71.82 72.52 72.57 72.60 72.55 72.55 72.47 72.35 72.43 72.53 71.97 71.49 71.27 70.95 71.38 71.08 70.86 70.10 69.63 69.34 69.07 68.59 68.50 68.99
59.96 57.99 56.36 51.92 50.61 51.50 52.21 54.84 59.09 61.38 62.63 64.95 64.03 62.09 65.52 68.93 68.70 71.67 73.36 72.98 73.24 73.87 74.49 71.52 70.72 71.60 72.36 72.70 72.68 72.48 72.10 71.80 71.75 71.95 72.27 71.97 71.51 71.31 70.83 71.13 70.90 69.93 69.51 68.90 68.17 68.23 67.76 67.22 67.72
60.66 57.88 52.91 51.69 51.14 52.25 53.85 54.88 56.74 59.49 58.83 62.73 63.23 61.62 63.00 69.17 70.99 72.52 73.25 73.29 72.89 73.52 74.68 73.41 70.14 71.16 72.10 72.78 72.78 72.20 71.64 71.31 71.39 71.76 71.85 72.24 72.19 70.97 70.77 70.86 70.81 69.96 68.78 67.41 66.05 66.59 67.39 67.09 67.05
57.24 57.50 51.43 49.75 50.25 52.15 53.80 55.08 55.56 59.53 58.43 62.55 61.20 62.37 64.39 71.28 70.85 72.19 73.43 74.01 74.29 73.55 74.59 73.06 71.61 71.28 71.74 72.24 71.72 70.99 70.69 70.62 71.12 71.47 71.65 72.09 71.44 70.76 70.21 70.11 69.60 68.94 67.57 65.70 63.97 63.18 66.66 67.16 68.27
55.81 55.01 51.35 50.31 50.08 51.60 53.19 55.64 55.18 57.42 58.80 60.35 63.90 59.83 65.86 69.34 71.69 72.81 73.41 73.95 73.76 73.67 73.20 72.84 73.50 72.87 71.07 70.62 70.22 69.70 69.87 70.07 70.64 70.89 70.99 70.67 69.83 69.73 69.59 69.19 68.61 67.89 66.64 64.91 63.23 62.00 64.69 67.08 67.63
57.98 55.98 50.75 51.33 49.91 50.50 54.59 55.34 54.96 57.06 58.50 63.84 64.82 58.71 61.46 69.45 71.70 72.44 72.74 72.76 72.55 71.98 72.52 73.22 73.51 73.45 73.61 73.57 69.42 69.15 69.25 69.39 69.82 70.18 69.64 68.94 68.66 68.79 68.54 68.33 68.11 67.21 66.19 64.60 63.11 62.12 62.26 66.31 66.85
56.96 52.91 50.41 50.07 50.58 52.04 55.43 53.78 55.85 57.23 60.38 62.64 64.49 63.99 66.87 71.31 71.39 70.77 70.69 71.01 71.48 71.04 71.19 71.92 72.58 72.76 73.21 72.92 72.47 69.92 69.57 69.28 69.42 69.82 68.74 68.01 71.26 70.49 69.27 67.50 67.00 66.69 65.60 64.44 63.29 62.35 61.80 64.31 65.39
54.67 52.98 51.09 53.51 54.44 53.70 54.73 54.50 55.04 54.82 56.61 58.27 61.45 66.60 68.87 70.73 70.32 69.06 68.83 68.69 69.65 70.19 69.69 70.30 70.94 72.01 72.19 71.96 72.39 72.95 72.40 72.47 72.29 71.94 71.45 71.74 71.93 71.61 70.57 68.21 66.42 65.93 65.07 63.71 63.30 62.73 62.62 61.73 64.79
54.54 51.59 53.72 53.96 55.01 55.67 55.29 55.08 55.72 54.74 53.80 55.50 56.21 62.33 67.60 69.36 69.61 68.99 68.64 68.89 69.36 70.60 70.94 71.17 70.12 71.03 71.03 70.57 71.99 71.58 71.60 71.14 71.42 71.68 71.76 72.19 71.61 70.76 69.65 70.02 68.12 68.71 65.13 67.36 65.01 64.93 64.74 64.17 63.40
51.89 53.84 54.39 54.95 55.44 55.42 54.98 56.84 55.32 55.91 56.01 57.48 58.34 62.26 67.08 68.19 68.80 69.15 68.83 69.01 69.48 70.22 70.62 71.51 71.31 69.83 70.32 70.37 70.51 70.93 71.70 71.66 71.55 71.83 72.07 71.89 70.87 70.43 70.07 69.80 69.93 69.42 68.70 68.52 67.78 67.70 66.65 64.75 63.38
53.54 54.37 55.26 56.01 55.89 56.12 56.45 55.24 55.79 56.33 58.43 58.49 59.06 62.83 65.04 66.79 68.38 69.96 70.25 70.10 70.10 69.68 70.57 70.92 71.28 69.05 69.46 69.47 69.60 70.31 71.23 71.25 71.78 71.77 71.86 71.59 70.51 70.03 70.35 69.93 70.27 70.33 70.24 68.66 67.95 67.10 66.32 64.63 63.22
54.72 54.53 54.96 55.86 55.94 56.41 54.29 54.79 55.02 56.72 58.99 58.62 58.30 60.66 62.78 65.24 66.91 69.10 70.10 70.02 69.83 70.00 70.36 70.19 69.66 68.98 69.16 69.13 69.24 69.34 70.67 71.27 71.39 71.37 71.45 71.06 70.71 70.66 70.30 69.95 69.56 69.53 69.65 69.61 67.11 66.93 66.21 65.16 64.00
54.59 52.03 54.12 54.82 55.27 54.19 54.76 52.60 53.27 56.94 57.22 57.27 57.76 60.06 61.72 64.22 65.85 67.92 69.91 70.42 70.71 70.63 71.01 69.30 68.26 68.58 69.04 68.73 70.32 69.97 69.67 70.12 69.89 70.41 70.40 70.41 70.49 70.07 70.31 70.03 69.65 68.96 67.28 66.92 66.87 66.33 66.18 64.87 63.83
52.35 52.27 49.37 53.04 53.24 53.51 53.45 49.45 54.45 55.51 55.62 55.68 57.53 59.21 61.12 62.88 65.37 67.63 69.54 70.82 71.36 71.08 70.66 71.60 68.96 68.38 69.04 68.52 69.27 69.17 68.70 68.44 68.28 68.44 68.21 69.78 70.15 70.08 70.04 68.27 68.38 68.73 64.86 64.75 62.69 64.87 63.22 59.40 58.82
51.47 47.63 48.79 50.05 52.31 51.85 52.22 50.49 54.38 55.81 54.67 55.12 56.66 57.39 58.15 60.43 64.28 66.61 68.85 70.26 71.10 71.38 71.24 70.98 71.63 68.90 68.27 68.97 69.02 68.43 68.51 67.91 68.02 68.06 68.78 69.29 68.36 69.33 69.31 69.15 69.52 68.95 66.86 65.75 62.36 62.64 62.85 62.31 59.62
47.56 47.69 49.21 48.63 51.41 51.18 50.95 51.18 54.25 54.98 54.35 55.28 56.34 57.06 57.74 58.51 61.03 65.30 68.04 69.76 70.82 71.30 71.81 71.41 71.22 71.24 69.38 68.33 68.63 67.69 67.72 68.20 68.23 69.11 68.90 68.63 68.61 70.26 69.89 69.19 68.77 68.23 67.22 66.43 65.14 61.58 62.05 60.87 58.92
50.13 49.10 48.70 51.12 52.81 49.56 50.53 51.20 52.97 55.51 55.33 55.21 55.82 56.75 57.40 57.98 59.88 62.57 66.81 68.63 70.12 71.12 71.07 70.92 70.40 70.80 69.14 66.69 66.15 65.71 65.24 67.15 66.89 67.59 68.26 67.04 69.81 69.93 69.15 67.67 67.11 66.54 64.77 65.35 64.87 62.62 59.72 59.38 59.88
49.76 48.53 49.01 51.15 50.60 49.06 50.45 50.32 52.96 54.54 55.46 56.34 56.47 57.01 57.37 58.00 58.09 58.90 61.90 64.06 65.67 66.76 70.17 70.74 70.81 70.21 68.04 66.37 67.69 67.29 66.99 67.10 68.10 68.33 68.73 69.82 69.13 68.21 66.57 65.90 64.87 64.67 62.73 62.67 63.25 62.42 59.19 59.86 60.07
49.51 48.48 48.82 47.56 49.62 51.08 49.15 48.99 51.37 53.63 54.55 55.69 56.39 56.95 56.33 56.50 57.07 57.70 60.18 62.66 65.00 66.27 66.58 68.76 70.57 69.56 67.22 69.02 68.09 67.54 67.34 67.74 66.71 67.84 68.19 68.14 67.52 66.44 65.70 65.49 65.16 63.80 61.86 60.32 60.80 60.55 59.72 57.73 58.03
47.32 51.41 49.87 47.66 46.73 44.70 49.01 43.34 49.56 52.20 52.98 54.45 55.56 55.43 56.16 57.65 58.95 59.31 60.72 62.13 64.42 66.15 67.81 68.47 69.38 67.38 67.06 68.22 67.11 67.12 66.77 66.44 67.49 67.09 66.35 64.44 64.96 64.55 63.97 63.30 62.03 61.59 61.22 60.56 59.81 59.70 59.10 59.39 57.37
48.52 49.17 48.31 48.12 47.01 46.39 47.43 44.50 48.75 51.16 50.81 53.07 54.99 55.49 57.03 58.67 59.36 59.92 61.24 62.97 64.75 65.89 64.53 66.31 66.55 65.44 65.90 67.03 68.93 68.34 67.30 67.09 65.85 62.56 61.50 61.18 61.89 61.59 61.00 60.55 60.66 60.31 60.40 60.42 60.44 58.63 57.71 58.70 58.38
50.11 48.26 47.91 47.81 47.28 41.76 46.91 45.82 47.17 49.57 50.93 52.27 53.45 54.74 55.67 57.53 59.47 61.06 62.49 62.93 63.65 63.33 63.61 64.40 64.25 64.18 65.48 67.17 68.40 68.59 67.42 63.79 60.02 59.29 58.49 58.94 60.11 60.89 60.87 59.77 60.06 60.13 59.94 59.49 58.51 58.60 58.06 57.93 57.96
49.33 47.37 42.76 41.40 41.09 40.95 45.30 43.84 46.42 51.10 52.98 53.35 53.46 54.16 55.88 58.00 59.84 60.58 60.90 61.74 61.85 61.58 62.35 62.83 63.89 64.46 66.49 66.57 67.97 68.16 65.10 61.83 59.70 58.47 57.37 57.38 57.99 58.91 59.41 59.75 59.37 59.15 59.24 58.15 57.29 57.35 57.28 56.49 55.74
48.16 48.18 43.15 36.30 38.93 42.05 44.59 41.81 47.01 52.37 53.33 54.42 54.10 54.81 55.81 57.18 59.64 60.69 62.04 62.68 62.79 62.18 62.97 63.43 64.07 63.65 65.52 66.67 66.69 63.70 61.49 59.92 58.37 58.46 57.67 57.81 57.61 58.46 59.70 59.79 59.18 58.71 57.82 55.80 56.82 56.51 56.23 55.12 54.75
47.83 44.61 49.40 44.44 45.02 40.94 44.18 47.75 51.13 52.13 51.87 52.37 53.46 54.59 55.76 56.91 58.71 60.75 62.57 63.55 63.81 63.31 63.85 65.44 66.37 66.53 66.86 64.34 61.64 60.92 60.70 59.24 58.47 59.02 59.32 58.57 59.09 58.33 58.96 58.76 57.61 57.37 56.61 56.42 55.89 55.55 55.34 53.69 52.67
49.08 51.21 43.45 44.56 36.30 35.81 42.57 44.56 44.85 48.60 50.25 52.17 52.85 54.49 55.58 56.89 57.90 59.99 61.85 62.92 64.17 65.38 66.32 66.47 67.25 64.32 61.31 60.32 60.22 59.66 59.49 59.58 59.25 59.07 58.62 58.09 58.57 58.30 57.37 56.76 56.50 55.86 55.43 55.57 55.57 55.03 55.18 53.51 51.57
46.59 45.85 46.51 46.72 45.04 39.00 37.63 42.66 51.45 50.38 51.52 51.93 53.56 54.47 55.36 56.51 57.73 59.19 60.55 62.25 62.81 63.60 64.38 63.71 61.86 59.86 58.80 58.94 59.25 59.13 59.34 58.89 58.30 57.45 57.62 57.65 57.42 56.99 56.54 55.71 55.62 53.91 54.53 55.50 55.15 54.81 54.74 53.46 52.12
49.54 48.72 48.56 43.01 41.91 44.49 42.87 41.99 53.09 53.43 53.87 53.77 53.36 53.35 55.30 56.13 57.22 58.72 59.82 60.64 60.16 60.10 60.70 59.80 58.93 58.29 58.39 58.45 57.51 57.03 56.71 56.20 56.31 56.24 56.19 56.15 55.31 55.16 54.38 54.64 53.46 54.16 54.48 54.89 54.63 54.16 53.65 51.80 50.32
MSLP
1012.27 1011.67 1011.23 1010.26 1008.63 1006.38 1004.94 1005.20 1005.42 1005.29 1005.52 1005.86 1005.89 1005.67 1005.77 1006.30 1006.80 1008.06 1009.97 1010.74 1010.89 1011.45 1012.43 1013.50 1014.11 1014.41 1014.89 1015.27 1015.54 1015.66 1015.83 1016.08 1016.25 1016.54 1016.87 1017.08 1017.26 1017.42 1017.54 1017.71 1017.95 1018.06 1018.18 1018.28 1018.27 1018.36 1018.47 1018.58 1018.76
1011.42 1011.36 1010.60 1008.71 1006.67 1004.37 1004.67 1005.36 1004.94 1005.12 1005.77 1006.13 1006.27 1006.31 1006.35 1007.15 1008.10 1009.26 1010.06 1011.00 1011.18 1011.67 1012.65 1013.31 1014.35 1014.64 1014.99 1015.30 1015.56 1015.75 1015.91 1016.12 1016.39 1016.65 1016.96 1017.25 1017.40 1017.53 1017.63 1017.95 1018.18 1018.30 1018.41 1018.46 1018.63 1018.68 1018.65 1018.86 1018.98
1011.31 1011.00 1008.98 1007.31 1005.49 1003.61 1004.40 1005.22 1005.26 1005.79 1006.20 1005.92 1005.99 1006.59 1007.00 1007.83 1008.81 1009.23 1010.10 1011.02 1011.31 1011.91 1012.56 1013.48 1014.38 1014.65 1015.03 1015.42 1015.70 1015.94 1016.09 1016.22 1016.59 1016.91 1017.24 1017.43 1017.57 1017.72 1017.90 1017.99 1018.15 1018.42 1018.56 1018.70 1018.84 1018.95 1019.01 1019.06 1019.34
1010.40 1009.83 1008.80 1006.61 1004.93 1005.66 1005.19 1005.42 1005.72 1005.75 1006.05 1006.11 1005.90 1006.63 1007.90 1008.97 1008.86 1009.57 1010.72 1011.18 1011.56 1012.00 1012.45 1013.95 1014.35 1014.67 1015.07 1015.50 1015.76 1015.98 1016.16 1016.43 1016.77 1017.08 1017.28 1017.45 1017.67 1017.86 1017.89 1018.14 1018.40 1018.54 1018.74 1018.85 1019.02 1019.17 1019.27 1019.43 1019.47
1009.83 1008.51 1006.66 1005.53 1005.48 1005.77 1005.72 1005.92 1005.98 1005.40 1005.70 1006.00 1006.21 1006.80 1007.85 1009.17 1009.93 1010.41 1011.09 1011.52 1011.68 1012.23 1012.63 1014.22 1014.80 1015.05 1015.31 1015.65 1015.93 1016.20 1016.39 1016.66 1016.94 1017.15 1017.35 1017.49 1017.71 1017.94 1018.13 1018.31 1018.55 1018.76 1018.96 1019.03 1019.09 1019.13 1019.14 1019.26 1019.42
1008.20 1007.79 1005.86 1004.88 1005.54 1005.93 1005.93 1006.14 1006.18 1005.65 1005.93 1006.21 1006.32 1006.73 1008.01 1009.44 1009.99 1010.73 1011.27 1011.62 1012.01 1012.48 1012.94 1014.08 1015.02 1015.28 1015.56 1015.88 1016.20 1016.42 1016.59 1016.88 1017.10 1017.29 1017.49 1017.66 1017.95 1018.17 1018.45 1018.63 1018.80 1018.96 1019.04 1019.07 1019.26 1019.36 1019.44 1019.35 1019.38
1007.64 1006.74 1005.86 1005.83 1005.84 1005.91 1006.26 1006.25 1006.03 1005.69 1005.80 1005.91 1006.41 1006.51 1008.51 1009.27 1010.12 1010.83 1011.31 1011.92 1012.46 1012.97 1013.40 1014.02 1014.36 1015.05 1015.70 1015.94 1016.17 1016.48 1016.73 1016.96 1017.16 1017.40 1017.60 1017.88 1018.15 1018.37 1018.60 1018.78 1018.92 1018.98 1019.14 1019.15 1019.22 1019.32 1019.41 1019.44 1019.43
1007.89 1006.85 1006.15 1006.15 1005.70 1006.20 1006.56 1006.25 1006.36 1006.01 1005.69 1006.65 1006.65 1006.32 1007.58 1008.74 1010.27 1010.89 1011.33 1011.75 1012.53 1013.31 1013.63 1013.81 1014.13 1014.50 1015.05 1015.63 1016.21 1016.55 1016.81 1017.01 1017.23 1017.44 1017.73 1018.01 1018.20 1018.41 1018.56 1018.72 1018.75 1018.69 1018.86 1019.05 1019.30 1019.43 1019.31 1019.36 1019.43
1008.52 1006.57 1005.71 1006.07 1006.14 1006.33 1006.58 1006.35 1006.41 1006.55 1006.03 1006.39 1006.74 1006.89 1007.93 1009.12 1010.15 1010.59 1011.11 1011.42 1011.93 1012.96 1013.47 1013.67 1013.93 1013.98 1014.51 1015.06 1015.86 1016.52 1016.79 1017.05 1017.26 1017.50 1017.84 1018.05 1017.45 1017.95 1018.31 1018.33 1018.51 1018.72 1018.88 1018.98 1019.13 1019.35 1019.47 1019.37 1019.45
1007.67 1006.35 1006.03 1006.67 1006.94 1006.84 1006.71 1006.54 1006.16 1005.95 1005.82 1006.02 1006.72 1007.73 1008.38 1009.02 1009.64 1010.02 1010.31 1010.73 1011.47 1012.38 1013.37 1013.74 1014.01 1014.07 1014.49 1014.72 1015.23 1015.67 1016.11 1016.45 1016.61 1016.89 1017.39 1017.02 1017.05 1017.15 1017.31 1018.11 1018.77 1018.81 1018.90 1019.07 1019.04 1018.98 1019.07 1019.04 1018.04
1007.67 1006.50 1006.82 1006.98 1007.24 1007.23 1006.70 1006.31 1006.45 1005.65 1005.38 1005.58 1005.90 1006.67 1008.02 1008.64 1008.84 1009.33 1009.75 1010.05 1010.95 1011.64 1012.52 1013.41 1014.00 1014.19 1014.53 1014.92 1015.00 1015.33 1015.71 1016.04 1016.23 1016.51 1016.75 1016.59 1016.84 1017.25 1017.57 1017.54 1018.25 1018.28 1018.85 1018.34 1018.68 1018.76 1018.29 1017.99 1017.97
1007.82 1007.40 1007.40 1007.02 1007.45 1007.29 1006.83 1006.57 1005.97 1005.65 1005.33 1005.92 1005.98 1006.39 1007.38 1007.89 1008.21 1008.53 1009.11 1009.59 1010.42 1011.09 1011.75 1012.57 1013.55 1014.22 1014.56 1014.93 1015.17 1015.30 1015.28 1015.66 1015.92 1016.13 1016.44 1016.34 1016.74 1016.97 1017.12 1017.16 1017.17 1017.41 1017.41 1017.57 1017.94 1017.75 1017.84 1018.13 1018.19
1007.98 1007.39 1007.55 1007.36 1007.42 1007.17 1007.08 1006.56 1005.84 1005.51 1005.50 1005.73 1006.12 1006.57 1006.78 1007.07 1007.46 1007.96 1008.51 1009.44 1009.98 1010.56 1011.24 1012.06 1012.93 1013.98 1014.36 1014.72 1015.01 1015.07 1014.89 1015.22 1015.10 1015.52 1016.16 1016.31 1016.52 1016.79 1016.87 1016.81 1016.95 1017.24 1017.61 1017.70 1017.76 1017.73 1017.87 1018.10 1018.16
1007.98 1007.75 1007.34 1007.06 1006.80 1006.60 1006.87 1006.00 1005.97 1005.21 1005.07 1005.14 1005.70 1005.66 1005.93 1006.27 1006.43 1007.14 1007.80 1008.42 1009.34 1010.15 1011.06 1012.20 1012.83 1013.62 1013.93 1014.32 1014.60 1014.89 1015.09 1014.99 1015.30 1015.47 1015.67 1016.41 1016.52 1016.56 1016.59 1016.88 1017.02 1017.18 1017.39 1017.59 1017.84 1017.40 1017.42 1017.57 1017.85
1008.17 1007.65 1006.66 1006.17 1006.07 1006.20 1006.52 1005.60 1004.87 1004.65 1005.03 1004.81 1004.88 1005.10 1005.27 1005.52 1005.85 1006.31 1006.96 1007.81 1008.65 1009.43 1010.41 1012.00 1012.71 1013.27 1013.60 1014.03 1014.22 1014.66 1014.89 1015.07 1015.45 1015.57 1016.15 1016.34 1016.61 1016.65 1016.63 1016.80 1016.94 1017.18 1017.67 1017.99 1017.85 1017.71 1017.53 1017.47 1017.56
1007.80 1007.26 1005.95 1005.77 1005.98 1006.18 1006.13 1003.90 1004.15 1004.81 1004.73 1004.56 1004.41 1004.44 1004.90 1005.00 1005.47 1005.91 1006.49 1007.27 1007.92 1008.74 1009.52 1011.00 1012.35 1012.88 1013.34 1013.67 1013.94 1014.28 1014.81 1015.18 1015.63 1015.91 1016.34 1016.32 1016.54 1016.71 1016.81 1016.98 1017.10 1017.36 1018.03 1018.02 1018.42 1018.06 1018.09 1018.39 1018.37
1007.17 1005.81 1005.61 1005.37 1005.93 1005.75 1005.48 1003.77 1003.73 1004.40 1004.53 1004.15 1004.05 1004.23 1004.35 1004.48 1004.88 1005.38 1005.95 1006.68 1007.32 1008.04 1008.87 1009.86 1011.01 1012.18 1012.83 1013.22 1013.47 1014.01 1014.43 1014.95 1015.27 1015.60 1015.78 1015.99 1016.48 1016.61 1016.67 1016.67 1016.57 1016.95 1017.41 1017.63 1017.89 1018.13 1018.06 1017.90 1018.57
1005.72 1005.97 1005.73 1005.44 1005.64 1005.77 1005.02 1004.24 1003.59 1003.62 1003.83 1003.63 1003.48 1003.65 1003.75 1003.90 1003.95 1004.52 1005.35 1006.09 1006.84 1007.43 1008.22 1009.14 1010.16 1011.11 1012.32 1012.95 1013.47 1013.95 1014.33 1014.68 1015.25 1015.41 1015.66 1015.99 1016.09 1016.03 1016.23 1016.16 1016.30 1016.56 1016.67 1016.83 1017.64 1017.85 1017.82 1018.00 1018.19
1007.24 1006.69 1005.93 1005.65 1005.76 1006.08 1004.79 1003.90 1003.35 1002.94 1003.01 1003.04 1002.87 1002.84 1002.94 1003.34 1003.63 1004.29 1005.07 1005.83 1006.50 1006.96 1007.66 1008.52 1009.49 1010.34 1011.49 1012.28 1012.84 1013.65 1014.00 1014.55 1014.84 1015.14 1015.37 1015.67 1015.44 1015.50 1015.71 1015.65 1015.57 1016.25 1016.62 1016.69 1016.97 1017.51 1018.01 1017.97 1017.99
1007.68 1007.01 1006.18 1005.87 1005.98 1006.14 1004.61 1003.58 1002.95 1002.45 1002.10 1001.95 1001.95 1001.97 1002.23 1002.81 1003.72 1004.55 1005.22 1006.07 1006.66 1007.00 1007.36 1008.06 1008.71 1009.58 1010.68 1011.67 1012.31 1012.88 1013.42 1014.00 1014.15 1014.52 1014.67 1014.80 1014.99 1015.17 1015.60 1015.98 1016.23 1016.31 1016.62 1017.08 1017.19 1017.25 1017.36 1017.35 1017.61
1007.52 1006.93 1006.43 1006.33 1005.77 1005.36 1004.95 1002.91 1001.79 1001.79 1001.88 1001.92 1001.91 1002.22 1002.79 1003.39 1003.76 1004.31 1005.16 1005.86 1006.39 1006.71 1007.05 1007.50 1008.03 1009.09 1010.31 1011.02 1011.66 1012.39 1013.16 1013.47 1013.90 1013.86 1013.93 1014.24 1014.58 1015.18 1015.93 1015.91 1015.88 1016.17 1016.58 1016.67 1016.88 1016.99 1017.10 1017.00 1017.08
1006.97 1006.91 1006.92 1006.53 1005.98 1004.53 1004.98 1002.59 1001.46 1001.49 1001.22 1001.18 1001.40 1002.16 1002.71 1003.38 1004.19 1004.76 1005.36 1005.97 1006.32 1006.85 1007.35 1007.50 1007.80 1009.40 1010.25 1010.56 1011.31 1011.60 1011.90 1011.97 1012.44 1013.01 1013.29 1014.00 1014.67 1015.04 1015.38 1015.68 1015.89 1016.09 1016.15 1016.28 1016.51 1016.63 1016.56 1016.41 1016.33
1006.84 1007.17 1006.94 1006.57 1005.93 1005.36 1004.24 1003.66 1000.78 1001.48 1000.84 1000.28 1000.75 1002.04 1003.22 1003.99 1004.60 1005.14 1005.92 1006.30 1006.73 1007.47 1008.42 1008.53 1008.96 1009.90 1010.40 1010.89 1010.91 1011.17 1011.82 1011.77 1012.47 1013.02 1013.55 1013.84 1014.67 1015.06 1015.18 1015.65 1015.74 1015.86 1015.91 1015.83 1016.11 1016.05 1016.30 1016.05 1015.88
1007.36 1007.15 1006.92 1006.69 1005.95 1004.67 1003.36 1003.16 1000.52 1000.35 1000.50 1000.84 1001.85 1002.75 1003.64 1004.32 1004.88 1005.37 1006.09 1006.91 1007.51 1008.47 1009.07 1009.38 1009.73 1010.09 1010.33 1010.54 1010.41 1010.58 1010.78 1011.42 1012.12 1012.40 1012.97 1013.49 1013.96 1014.46 1014.84 1015.21 1015.45 1015.63 1015.59 1015.68 1015.55 1015.57 1015.69 1015.66 1015.62
1007.17 1006.55 1005.48 1005.11 1004.87 1003.40 1003.81 1003.14 1001.30 1000.95 1000.92 1001.40 1001.95 1002.85 1003.79 1004.38 1004.83 1005.50 1006.20 1006.89 1007.50 1008.25 1008.63 1008.95 1009.09 1009.25 1009.51 1009.79 1010.08 1010.46 1011.00 1011.46 1011.83 1012.12 1012.75 1013.29 1013.55 1014.10 1014.53 1014.69 1014.79 1014.90 1015.05 1015.29 1015.41 1015.42 1015.28 1015.45 1015.30
1005.97 1005.85 1005.19 1004.40 1003.75 1003.37 1004.14 1002.07 1000.75 1001.11 1001.40 1001.63 1002.49 1003.08 1003.68 1004.24 1004.89 1005.48 1005.96 1006.43 1007.05 1007.89 1008.25 1008.49 1008.65 1008.86 1008.97 1009.64 1009.82 1010.10 1010.40 1011.04 1011.39 1012.00 1012.47 1012.93 1013.09 1013.38 1013.69 1014.12 1014.47 1014.48 1014.69 1015.16 1015.21 1015.27 1015.16 1015.19 1015.13
1005.68 1005.73 1005.49 1005.30 1004.89 1004.13 1002.78 1001.33 1000.58 1000.97 1001.42 1001.85 1002.22 1002.85 1003.37 1003.92 1004.47 1005.07 1005.58 1006.15 1006.88 1007.58 1007.95 1008.14 1008.35 1008.59 1008.99 1009.19 1009.35 1010.05 1010.65 1011.01 1011.45 1011.95 1012.50 1012.75 1013.08 1013.40 1013.72 1013.90 1014.01 1014.16 1014.26 1014.43 1014.47 1014.43 1014.48 1014.75 1014.87
1005.90 1005.29 1005.58 1005.39 1004.27 1002.94 1001.39 1000.70 1000.54 1000.74 1001.05 1001.35 1001.77 1002.27 1002.87 1003.43 1004.06 1004.63 1005.06 1005.81 1006.32 1006.61 1007.10 1007.75 1007.86 1008.05 1008.78 1009.36 1009.77 1010.13 1010.79 1011.45 1011.73 1012.12 1012.39 1012.86 1013.19 1013.44 1013.68 1013.68 1013.72 1013.65 1013.53 1013.46 1013.78 1013.87 1013.91 1013.98 1014.34
1005.58 1005.48 1005.27 1004.89 1004.19 1003.14 1001.78 1000.86 1000.75 1000.73 1001.06 1001.39 1001.48 1002.32 1002.59 1003.00 1003.39 1003.86 1004.46 1004.97 1005.61 1006.22 1006.64 1007.27 1007.67 1007.73 1008.15 1008.87 1009.63 1010.37 1010.72 1011.07 1011.66 1012.14 1012.56 1013.01 1013.25 1013.43 1013.39 1013.42 1013.19 1013.19 1013.25 1013.11 1012.97 1012.74 1012.88 1013.13 1013.40
1004.87 1004.39 1004.52 1004.27 1003.60 1002.82 1002.24 1000.60 1001.21 1001.23 1001.21 1001.48 1001.64 1001.95 1002.18 1002.55 1002.96 1003.37 1003.68 1004.30 1004.96 1005.40 1005.88 1006.57 1007.28 1007.66 1008.27 1008.84 1009.10 1009.74 1010.34 1010.96 1011.24 1011.80 1012.06 1012.40 1012.63 1012.75 1012.73 1012.87 1013.06 1012.87 1012.37 1012.01 1011.91 1011.74 1011.90 1012.37 1012.80
Wind_Speed
8 7 4 6 8 8 9 8 3 6 7 2 4 2 8 9 6 6 7 6 13 17 17 16 11 13 13 13 14 15 16 17 17 16 15 14 14 13 13 12 10 10 10 10 10 9 10 9 8
4 4 5 2 9 9 9 5 5 5 4 9 8 6 2 7 5 11 12 9 17 17 17 16 13 13 13 13 13 15 16 16 16 16 15 14 14 13 13 12 9 10 9 9 8 8 9 8 8
5 5 5 4 5 7 10 4 4 9 6 4 5 5 2 5 5 6 10 14 17 17 17 16 14 14 15 14 14 14 15 15 15 15 15 16 15 14 13 11 9 9 9 8 7 7 7 7 5
5 6 5 9 10 9 6 6 4 10 5 1 2 8 6 4 5 6 14 15 16 16 17 18 15 16 16 15 14 14 15 14 14 14 15 15 15 14 13 10 9 9 9 8 7 6 6 4 4
5 4 5 5 9 5 4 4 1 6 4 3 3 7 7 5 5 9 12 12 14 14 14 17 11 13 15 15 14 13 13 13 13 14 14 14 14 14 11 10 9 10 9 8 7 6 5 3 3
6 4 8 8 7 6 5 4 2 4 1 5 2 8 6 5 6 8 10 10 12 13 13 15 12 11 12 12 12 11 12 11 11 12 12 13 13 12 10 10 10 9 8 7 6 5 4 2 2
4 5 4 4 8 9 7 4 1 4 3 5 1 7 5 7 7 9 9 10 12 12 12 12 16 15 11 11 11 11 11 11 11 11 12 12 11 11 11 10 9 8 7 7 7 6 5 4 5
4 4 6 2 5 10 7 2 2 3 6 3 1 3 6 11 12 10 10 11 12 11 12 13 14 16 15 14 11 11 11 11 11 11 12 11 11 11 10 10 9 9 8 7 6 6 6 6 5
4 6 6 6 7 5 4 2 4 1 3 2 3 2 6 15 15 12 11 12 12 10 10 10 12 13 14 13 13 11 11 11 11 11 11 11 9 11 11 6 11 9 7 6 6 6 5 6 5
8 6 4 5 2 2 2 1 2 5 6 6 7 4 7 17 16 16 15 14 14 14 12 12 12 12 11 9 13 13 12 11 11 11 12 9 7 7 5 7 8 7 6 5 5 7 8 9 7
3 7 3 5 3 3 5 3 2 6 8 2 5 10 12 15 17 16 16 15 15 15 13 14 12 11 12 9 9 6 6 6 7 10 10 8 7 6 6 5 7 7 8 6 7 8 7 5 4
8 6 6 2 3 6 7 8 7 7 8 2 3 4 13 16 16 17 17 15 15 16 16 16 15 12 10 7 6 7 7 8 7 9 10 7 6 6 4 4 4 5 6 4 5 4 4 6 6
10 7 6 9 10 12 10 13 14 11 10 7 5 8 13 14 16 15 15 14 14 15 15 15 14 12 10 9 8 8 8 8 9 8 10 7 6 5 5 5 4 3 2 3 3 4 4 5 6
2 7 10 11 13 13 11 15 6 13 16 14 12 14 14 15 16 15 17 17 17 15 15 14 14 14 13 11 12 9 8 8 6 6 7 9 6 5 5 5 5 4 4 2 4 5 4 5 5
5 10 10 12 9 5 6 13 16 16 8 15 16 14 13 14 14 17 17 17 16 14 15 15 15 14 15 13 12 9 8 7 6 6 5 7 8 6 6 4 4 3 2 5 5 5 5 5 5
10 6 10 9 5 5 8 11 5 4 10 12 15 12 12 15 15 14 13 15 15 15 15 16 14 15 14 12 10 8 7 7 6 5 5 7 7 7 5 4 4 2 3 4 4 6 4 3 3
9 11 7 4 4 3 8 8 6 5 5 8 9 10 10 10 13 16 15 14 15 15 15 17 18 17 15 13 11 8 8 7 6 6 6 7 7 9 6 6 6 5 5 5 4 4 6 5 5
5 9 8 7 7 7 10 13 13 6 7 10 10 11 11 10 12 13 16 15 15 15 16 17 16 17 15 10 8 7 8 7 5 5 6 6 7 8 7 6 7 6 6 6 6 6 3 4 4
9 9 11 7 3 7 11 12 13 12 11 14 14 14 14 14 12 8 9 12 13 14 16 17 17 17 12 10 10 7 7 7 6 6 7 7 7 7 7 7 6 6 7 8 7 4 5 5 4
9 12 13 10 2 6 11 14 14 16 16 15 13 13 12 9 9 11 10 10 12 13 15 17 18 18 13 11 11 7 8 6 7 8 9 10 8 7 5 7 6 6 5 7 8 8 3 6 7
13 13 10 10 8 12 10 19 14 10 9 12 13 12 7 7 8 8 10 11 11 12 14 16 18 17 16 16 10 7 7 5 6 7 8 8 8 6 7 7 6 5 5 6 7 6 10 7 7
12 10 13 10 7 7 3 7 5 8 9 11 11 7 5 2 3 4 7 10 10 9 9 13 15 14 13 17 14 15 11 10 8 10 8 7 6 6 5 5 5 6 6 7 8 8 8 10 10
3 3 6 7 10 7 13 8 3 8 13 9 5 6 3 2 4 4 5 6 5 4 6 7 7 12 12 15 14 12 11 8 6 5 7 5 5 5 5 5 6 8 7 8 10 8 10 9 10
4 6 6 7 9 10 16 11 7 6 5 2 5 5 3 4 5 5 2 3 4 3 3 5 9 10 13 13 13 16 14 11 9 8 6 4 4 4 6 7 7 8 9 10 8 10 11 10 10
10 8 5 7 7 8 3 7 12 9 11 7 4 2 1 4 6 5 4 5 5 7 9 9 11 12 14 14 15 13 12 12 10 8 5 5 4 4 7 8 9 9 10 9 8 9 10 10 10
15 10 7 7 8 10 9 9 7 4 5 5 8 5 4 5 6 6 7 8 7 9 10 11 13 14 15 15 13 12 12 7 6 6 4 4 5 7 8 8 9 10 10 9 9 8 9 9 7
8 10 5 13 17 12 12 16 13 15 10 8 7 6 5 4 6 8 9 9 8 8 11 13 15 15 14 14 13 11 10 8 7 7 5 5 7 6 8 9 10 10 10 10 11 9 11 9 10
10 5 5 6 8 16 11 11 9 6 10 11 10 9 5 6 7 9 11 11 11 12 11 12 12 13 13 12 10 9 8 7 6 5 8 8 7 7 8 8 9 10 11 11 11 10 12 12 10
8 11 9 9 10 14 16 9 6 4 2 7 8 5 5 6 7 8 10 12 13 12 13 13 13 14 13 12 9 8 7 7 6 6 6 5 5 7 9 9 11 10 12 12 12 13 13 14 13
11 16 18 13 15 13 15 16 15 16 14 10 11 7 6 6 6 8 11 12 14 15 15 15 14 13 11 9 9 8 8 8 8 6 4 4 6 6 9 10 11 13 14 13 14 15 13 13 15
Wind_Direction
180 204 225 227 232 240 126 123 23 144 158 74 93 280 49 20 360 25 131 87 139 146 146 156 134 125 120 120 123 123 123 124 126 129 131 132 128 125 121 115 109 113 112 113 116 116 114 114 114
181 191 222 253 248 184 115 95 168 56 95 127 122 122 96 74 64 111 136 134 149 147 149 152 136 131 132 132 131 133 134 135 137 137 136 134 131 126 119 115 114 112 113 113 112 114 113 116 119
184 238 259 252 257 102 112 79 52 109 119 182 119 46 56 83 111 107 110 142 147 152 156 143 145 142 143 146 148 145 143 142 143 141 139 137 136 132 130 121 119 121 111 108 108 104 103 107 123
184 193 207 245 119 82 42 58 85 138 135 77 90 91 108 38 114 93 138 149 153 155 160 141 149 150 152 155 156 155 151 147 145 143 142 141 139 135 126 122 118 115 114 109 101 95 88 101 131
209 236 234 193 101 79 25 7 250 153 102 106 313 107 100 107 90 120 136 149 153 156 153 158 145 151 156 159 162 157 152 148 146 145 147 145 139 133 123 115 116 114 113 108 106 107 105 120 175
201 272 216 167 98 93 90 10 261 230 19 121 188 128 112 109 136 126 140 139 144 154 150 150 149 151 159 161 157 157 152 148 145 147 145 139 136 126 119 112 113 114 121 122 117 108 116 100 144
288 252 74 140 112 103 49 38 220 210 207 138 64 134 95 155 121 137 138 137 142 149 154 156 169 168 160 158 161 161 152 153 149 144 136 133 127 128 127 129 132 137 143 136 135 134 126 121 131
284 268 168 145 151 105 48 355 16 257 120 113 211 111 134 151 148 144 148 149 149 161 164 168 176 174 177 175 167 158 160 158 153 143 140 139 136 138 141 147 154 164 164 157 139 136 145 142 142
270 230 164 141 187 85 37 14 121 322 179 137 140 49 100 140 153 158 160 167 166 164 174 176 185 182 178 184 166 166 165 156 146 147 148 155 170 177 169 118 158 174 172 161 147 144 151 157 160
257 257 121 114 95 36 43 296 353 214 160 168 179 136 148 157 171 176 182 181 181 183 183 187 185 183 180 182 169 184 171 178 182 182 171 191 177 191 200 148 166 172 172 170 165 161 168 202 196
174 269 121 181 227 281 309 229 257 237 209 225 218 171 177 183 184 190 197 192 190 189 183 189 188 183 181 179 183 179 177 178 191 189 186 197 191 178 205 172 175 177 194 201 197 185 216 215 250
242 240 256 262 217 260 274 309 261 239 273 32 251 183 181 193 200 198 200 195 191 191 193 190 183 187 183 175 180 180 182 186 191 196 200 198 205 199 223 216 197 203 184 182 225 219 235 220 219
239 256 253 251 255 260 279 267 271 265 257 237 211 196 204 206 206 206 202 201 200 197 193 192 183 187 180 178 181 191 204 201 202 194 199 214 217 214 218 218 233 256 217 227 233 257 242 229 234
116 258 267 270 261 252 251 259 263 245 252 233 217 222 214 215 206 200 203 200 201 198 195 193 194 187 182 189 185 192 199 198 207 210 202 211 228 220 232 227 231 238 249 263 243 237 244 246 250
260 270 256 249 248 218 225 237 230 252 247 245 224 227 225 220 216 210 205 209 201 199 191 190 193 186 188 192 193 194 199 204 197 216 224 210 224 231 248 257 258 250 266 272 282 247 241 258 246
254 243 262 124 210 145 217 270 137 227 243 232 232 231 227 227 225 225 218 208 204 203 197 184 188 190 188 190 187 187 190 196 195 197 193 217 218 246 242 257 273 282 211 220 233 250 236 278 281
205 262 220 228 196 192 236 295 144 189 209 234 222 226 230 236 225 225 219 216 210 201 196 194 190 187 187 190 185 177 182 191 190 188 193 200 211 219 231 246 261 232 241 234 211 240 245 228 225
252 236 214 253 144 232 261 265 274 222 244 232 226 227 235 236 236 211 215 215 211 205 200 199 193 186 183 179 170 172 189 185 185 208 197 186 207 211 221 247 253 245 261 250 245 231 284 265 233
278 267 270 271 273 278 261 265 266 265 239 247 244 240 232 234 236 220 217 222 220 218 207 202 193 188 175 170 166 173 183 178 182 193 195 205 217 210 232 246 247 255 265 273 277 262 246 220 224
246 263 265 272 300 247 280 276 269 265 262 262 270 262 260 255 239 223 216 217 218 223 218 207 200 190 179 172 176 171 176 186 187 191 189 206 203 211 225 236 240 256 262 280 263 247 216 245 201
230 245 263 274 305 249 277 265 232 237 242 256 259 259 266 253 254 232 221 226 229 228 216 211 204 189 183 180 170 162 157 158 182 194 188 196 198 192 210 219 245 257 261 261 259 249 242 237 214
235 224 247 265 266 278 2 290 237 241 260 253 244 226 249 241 235 262 246 237 229 232 227 216 207 174 186 176 170 177 184 182 183 191 188 173 188 200 211 235 258 265 262 248 254 259 250 247 256
218 181 224 254 264 300 259 253 211 186 270 267 228 197 149 348 320 293 260 277 269 231 218 218 177 183 178 179 185 180 186 170 171 170 166 185 186 206 209 231 239 249 254 262 266 260 257 249 258
128 190 211 235 257 248 245 229 270 246 270 118 107 116 26 333 286 269 274 301 276 260 192 169 176 174 176 182 191 186 180 175 174 171 184 195 202 206 220 231 244 252 254 258 260 258 255 261 256
226 237 254 220 203 261 99 231 259 273 262 266 255 214 1 258 267 264 246 231 213 203 192 183 183 175 176 177 188 187 180 181 182 180 196 202 210 224 239 233 235 242 249 251 250 251 253 252 250
207 240 265 280 279 290 164 248 252 236 318 275 238 262 252 247 240 242 222 217 212 203 200 186 185 179 182 183 182 180 182 182 188 187 197 222 232 241 240 241 249 254 249 246 250 251 255 255 254
169 216 280 274 265 265 251 263 263 248 247 250 228 217 261 231 219 229 227 219 214 210 208 196 194 188 186 183 179 180 180 180 186 189 200 228 240 252 258 254 258 257 252 247 242 242 247 239 245
266 115 210 201 265 268 252 264 258 251 240 242 233 240 221 220 216 217 216 215 219 213 206 207 202 188 185 187 189 187 179 188 191 203 221 231 247 253 259 261 261 255 252 245 242 246 248 246 240
189 230 242 289 271 272 282 268 28 251 256 226 243 213 224 246 242 227 228 220 216 216 212 203 204 198 190 191 186 188 188 190 202 218 229 241 271 269 274 276 269 266 261 252 242 241 248 248 243
285 264 243 248 264 235 262 265 257 254 268 252 239 218 225 228 230 238 233 221 219 217 211 208 207 207 201 193 188 178 179 183 191 198 210 251 267 289 293 289 287 277 272 261 250 248 241 246 250